Location: Dompnac
(44.5644°N, 4.1026°E)
Time: 11:32:08
(UTC+00:00)

Cosmos 1891 Rocket - Pass Details

Date: 26 January 2021
Orbit: 934 x 1018 km, 82.9° (Epoch: 24 February)

Event Time Altitude Azimuth Distance (km) Brightness Sun altitude
Exits shadow 05:27:47 27° 260° (W) 1,747 5.3 -17.9°
Maximum altitude 05:29:27 31° 288° (WNW) 1,610 5.1 -17.6°
Drops below altitude 10° 05:34:46 10° 350° (N) 2,664 6.6 -16.7°
Sets 05:37:34 0° 0° (N) 3,607 7.4 -16.2°
